Overview Statistics Trail Chart Weather Telemetry Raw packets
 

This is the latest recevied weather packets stored in our database for station/object K1TTC. If no packets are shown the sender has not sent any weather packets the latest 10 day(s).

<< 16 17 18 19 20 21 22 >>
Time Temp. Humidity Pressure Rain* Wind** Luminosity Snow
1788371762 22.78° C 64% 1023.4 hPa 0 mm - 320 W/m² -
1788371162 23.33° C 63% 1023.4 hPa 0 mm - 299 W/m² -
1788370567 23.33° C 62% 1023.5 hPa 0 mm - 336 W/m² -
1788369962 22.78° C 60% 1023.4 hPa 0 mm - 332 W/m² -
1788369365 22.78° C 58% 1023.6 hPa 0 mm - 390 W/m² -
1788368761 23.33° C 57% 1023.6 hPa 0 mm - 422 W/m² -
1788368161 23.33° C 57% 1023.5 hPa 0 mm - 494 W/m² -
1788367561 22.78° C 58% 1023.5 hPa 0 mm - 605 W/m² -
1788366961 22.78° C 62% 1023.6 hPa 0 mm - 508 W/m² -
1788366362 22.22° C 61% 1023.8 hPa 0 mm - 397 W/m² -
1788365762 22.22° C 63% 1023.8 hPa 0 mm - 396 W/m² -
1788365162 21.67° C 64% 1023.9 hPa 0 mm - 457 W/m² -
1788364562 21.67° C 65% 1024 hPa 0 mm - 366 W/m² -
1788363962 21.11° C 66% 1024.1 hPa 0 mm - 380 W/m² -
1788363362 21.11° C 69% 1024.1 hPa 0 mm - 322 W/m² -
1788362762 21.11° C 70% 1024.2 hPa 0 mm - 272 W/m² -
1788362163 20.56° C 72% 1024.1 hPa 0 mm - 225 W/m² -
1788361563 20.56° C 73% 1024.4 hPa 0 mm - 199 W/m² -
1788360960 20.56° C 75% 1024.3 hPa 0 mm - 288 W/m² -
1788360361 20° C 79% 1024.1 hPa 0 mm - 276 W/m² -
1788359761 20° C 83% 1024 hPa 0 mm - 640 W/m² -
1788359161 19.44° C 85% 1023.9 hPa 0 mm - 417 W/m² -
1788358562 19.44° C 89% 1023.8 hPa 0 mm - 378 W/m² -
1788357963 18.89° C 89% 1023.6 hPa 0 mm - 292 W/m² -
1788357361 18.89° C 89% 1023.5 hPa 0 mm - 306 W/m² -

* Rain latest hour (hover to see other rain measurements)
** Current wind speed in m/s (hover to see current wind gust speed)